Weather History for Cortez, CO

Change the Weather History Date:

Wednesday, November 10, 2010

  Actual Average Record
Temperature  
Mean Temperature 32 °F 39 °F  
Max Temperature 48 °F 54 °F 73 °F (2005)
Min Temperature 15 °F 24 °F 10 °F (1998)
Degree Days  
Heating Degree Days 34 26  
Month to date heating degree days 242  
Since 1 July heating degree days 924  
Cooling Degree Days 0 0  
Month to date cooling degree days 0  
Year to date cooling degree days 426  
Moisture  
Dew Point 18 °F    
Average Humidity 66    
Maximum Humidity 89    
Minimum Humidity 25    
Precipitation  
Precipitation 0.00 in 0.04 in 0.25 in (2012)
Month to date precipitation 0.45  
Year to date precipitation 11.87  
Sea Level Pressure  
Sea Level Pressure 29.95 in    
Wind  
Wind Speed 3 mph (SE)    
Max Wind Speed 9 mph    
Max Gust Speed 16 mph    
Visibility 10 miles    
Events      
T = Trace of Precipitation, MM = Missing Value Source: NWS Daily Summary

Daily Weather History Graph

Daily Weather History Graph

Search for Another Location

Airport:

Trip Planner

Search our weather history database for the weather conditions in past years. The results will help you decide how hot, cold, wet, or windy it might be!

Date:

Astronomy

Nov. 10, 2010 Rise Set
Actual Time 6:48 AM MST 5:07 PM MST
Civil Twilight 6:20 AM MST 5:35 PM MST
Nautical Twilight 5:49 AM MST 6:06 PM MST
Astronomical Twilight 5:19 AM MST 6:37 PM MST
Moon 11:12 AM MST (11/10) 9:15 PM MST (11/10)
Length of Visible Light 11h 14m
Length of Day
10h 19m
Waxing Crescent, 23% of the Moon is Illuminated
Nov 10
Waxing Crescent
Nov 13
First Quarter
Nov 21
Full
Nov 28
Last Quarter
Dec 5
New

Hourly Weather History & Observations

Time (MST) Temp. Windchill Dew Point Humidity Pressure Visibility Wind Dir Wind Speed Gust Speed Precip Events Conditions
1:53 AM 19.9 °F 12.1 °F 17.1 °F 89% 29.99 in 10.0 mi ENE 5.8 mph - N/A   Clear
2:53 AM 19.0 °F - 15.1 °F 85% 29.99 in 10.0 mi Calm Calm - N/A   Clear
3:53 AM 16.0 °F - 12.9 °F 88% 30.00 in 10.0 mi Calm Calm - N/A   Clear
4:53 AM 16.0 °F - 12.9 °F 88% 30.01 in 10.0 mi Calm Calm - N/A   Clear
5:53 AM 16.0 °F - 12.0 °F 84% 30.03 in 10.0 mi Calm Calm - N/A   Clear
6:53 AM 15.1 °F - 12.0 °F 88% 30.04 in 10.0 mi Calm Calm - N/A   Clear
7:53 AM 19.9 °F - 17.1 °F 89% 30.06 in 10.0 mi Calm Calm - N/A   Clear
8:53 AM 28.0 °F - 21.9 °F 78% 30.02 in 10.0 mi Calm Calm - N/A   Clear
9:53 AM 35.1 °F - 24.1 °F 64% 30.00 in 10.0 mi Calm Calm - N/A   Clear
10:53 AM 41.0 °F - 21.0 °F 45% 29.95 in 10.0 mi Calm Calm - N/A   Scattered Clouds
11:53 AM 45.0 °F 40.1 °F 21.0 °F 39% 29.90 in 10.0 mi South 9.2 mph - N/A   Clear
12:53 PM 46.0 °F 42.5 °F 18.0 °F 33% 29.86 in 10.0 mi Variable 6.9 mph 16.1 mph N/A   Clear
1:53 PM 48.0 °F - 17.1 °F 29% 29.83 in 10.0 mi South 6.9 mph - N/A   Partly Cloudy
2:53 PM 46.0 °F 41.9 °F 12.9 °F 26% 29.85 in 10.0 mi SW 8.1 mph - N/A   Mostly Cloudy
3:53 PM 46.9 °F - 12.9 °F 25% 29.86 in 10.0 mi South 4.6 mph - N/A   Mostly Cloudy
4:53 PM 43.0 °F - 12.9 °F 30% 29.88 in 10.0 mi Calm Calm - N/A   Clear
5:53 PM 34.0 °F 28.8 °F 21.0 °F 59% 29.92 in 10.0 mi NE 5.8 mph - N/A   Mostly Cloudy
6:53 PM 30.0 °F 24.1 °F 21.0 °F 69% 29.95 in 10.0 mi East 5.8 mph - N/A   Scattered Clouds
7:53 PM 28.9 °F 23.9 °F 21.9 °F 75% 29.94 in 10.0 mi East 4.6 mph - N/A   Partly Cloudy
8:53 PM 28.0 °F - 21.9 °F 78% 29.93 in 10.0 mi Calm Calm - N/A   Scattered Clouds
9:53 PM 25.0 °F - 21.0 °F 85% 29.93 in 10.0 mi Calm Calm - N/A   Clear
10:53 PM 25.0 °F - 21.9 °F 88% 29.93 in 10.0 mi Calm Calm - N/A   Overcast
11:53 PM 28.0 °F 24.2 °F 21.9 °F 78% 29.91 in 10.0 mi SSE 3.5 mph - N/A   Overcast